Regional Weather Roundup
Issued by NWS

Home | Current Version | Previous Version | Graphics & Text | Print | Product List | Glossary On
Versions: 1 2 3 4 5 6 7 8 9 10 11 12 13 14 15 16 17 18 19 20 21 22 23 24 25 26 27 28 29 30 31 32 33 34 35 36 37 38 39 40 41 42 43 44 45 46 47 48 49 50
000
ASUS43 KIND 191509
RWRIN

WEATHER ROUNDUP FOR INDIANA
NATIONAL WEATHER SERVICE INDIANAPOLIS IN
1100 AM EDT SAT APR 19 2014

NOTE: "FAIR" INDICATES FEW OR NO CLOUDS BELOW 12,000 FEET WITH NO
SIGNIFICANT WEATHER AND/OR OBSTRUCTIONS TO VISIBILITY.

* - STATION DOES NOT REPORT WEATHER SUCH AS PRECIPITATION OR FOG.

+ - STATION NOT QUALITY CONTROLLED BY THE NATIONAL WEATHER SERVICE.
    USE DATA WITH CAUTION...ESPECIALLY DEWPOINT AND RELATIVE
    HUMIDITY OBSERVATIONS.

INZ001>003-010>013-019-020-191600-
NORTHWEST INDIANA

CITY           SKY/WX    TMP DP  RH WIND       PRES   REMARKS
GARY /AIRPORT/ SUNNY     50  39  66 NE6       30.38F
LA PORTE +     SUNNY     50  37  60 E13       30.39S
MICHIGAN CITY+ SUNNY     52  36  54 E8        30.38S
MONTICELLO +   SUNNY     50  38  65 E9        30.37R
RENSSELAER +   SUNNY     52  39  62 E12       30.37S
VALPARAISO     SUNNY     52  37  56 E10       30.38S

$$

LMZ046-743>745-191600-
SOUTHERN LAKE MICHIGAN

STATION/POSITION TIME  TEMP WIND        PRES
                       AIR  DIR/SP/G
                 (UTC) (F)  (DEG/KT/KT) (MB)
MICHIGAN CITY    1500   49  120/  9/ 13   N/A

$$

INZ004-005-014>016-021>024-191600-
NORTH CENTRAL INDIANA

CITY           SKY/WX    TMP DP  RH WIND       PRES   REMARKS
ELKHART        SUNNY     48  36  61 E10       30.40F
GOSHEN         SUNNY     50  36  58 E13       30.40S
LOGANSPORT +   SUNNY     52  36  54 E13       30.38R
PERU/GRISSOM   SUNNY     51  41  67 E16       30.37R
ROCHESTER +    SUNNY     52  37  58 E12       30.39R
SOUTH BEND     SUNNY     50  35  56 E13       30.40S
WARSAW +       SUNNY     48  36  61 E10G17    30.39F

$$

INZ006>009-017-018-025>027-191600-
NORTHEAST INDIANA

CITY           SKY/WX    TMP DP  RH WIND       PRES   REMARKS
ANGOLA *+      SUNNY     45  34  65 SE8       30.41S
AUBURN +       SUNNY     46  32  57 E12       30.42S
FORT WAYNE     SUNNY     48  35  60 E14       30.41S

$$

INZ028-029-035-036-043>045-051>053-191600-
WEST CENTRAL INDIANA

CITY           SKY/WX    TMP DP  RH WIND       PRES   REMARKS
GREENCASTLE +  SUNNY     55  41  58 E9        30.33F
LAFAYETTE      SUNNY     53  40  61 E12       30.35S
TERRE HAUTE    SUNNY     59  40  49 E5        30.32S

$$

INZ030>032-037>040-046>048-054>057-064-065-191600-
CENTRAL INDIANA

CITY           SKY/WX    TMP DP  RH WIND       PRES   REMARKS
ANDERSON       SUNNY     52  41  66 NE17      30.37R
CP ATTERBURY + SUNNY     59  43  55 E3        30.34R
COLUMBUS       SUNNY     57  46  67 NE9       30.32S
INDIANAPOLIS   SUNNY     55  42  61 NE9       30.35R
-EAGLE CREEK   SUNNY     55  41  59 E10       30.34R
KOKOMO *+      SUNNY     50  39  66 E13       30.37S
MARION +       SUNNY     49  37  62 E15       30.38S
MT COMFORT *+  SUNNY     55  45  67 E10       30.35S
SHELBYVILLE    SUNNY     59  43  55 NE10      30.33S
ZIONSVILLE +   SUNNY     53  42  65 E7        30.35S

$$

INZ033-034-041-042-049-050-058-059-191600-
EAST CENTRAL INDIANA

CITY           SKY/WX    TMP DP  RH WIND       PRES   REMARKS
MUNCIE         SUNNY     51  40  65 E12       30.37R

$$

INZ060-061-067>069-081>083-085>088-191600-
SOUTHWEST INDIANA

CITY           SKY/WX    TMP DP  RH WIND       PRES   REMARKS
EVANSVILLE     SUNNY     64  41  42 E8        30.29R
HUNTINGBURG *+ SUNNY     63  43  48 E9        30.29S
WASHINGTON +   SUNNY     61  42  49 E9        30.30R

$$

INZ062-063-066-070>080-084-089>092-191600-
SOUTH CENTRAL AND SOUTHEAST INDIANA

CITY           SKY/WX    TMP DP  RH WIND       PRES   REMARKS
BLOOMINGTON    SUNNY     60  38  43 NE7       30.31S

$$




USA.gov is the U.S. government's official web portal to all federal, state and local government web resources and services.